{"data":{"norad_id":47753,"epoch":"2026-05-25T03:31:48.181152Z","epoch_age_seconds":65777,"freshness":"FRESH","line1":"1 47753U 21017AH  26145.14708543 -.00003668  00000+0 -10658-3 0  9994","line2":"2 47753  53.1581 208.3019 0001320  93.7353 266.3799 15.31673687289604","mean_motion":15.31673687,"eccentricity":0.000132,"inclination_deg":53.1581,"raan_deg":208.3019,"arg_perigee_deg":93.7353,"mean_anomaly_deg":266.3799,"bstar":-0.00010658,"rev_number":28960,"period_min":94.01480303683,"perigee_km":469.91437191505,"apogee_km":471.72249614964,"semimajor_km":6848.9554340323,"source":"CELESTRAK","updated_at":"2026-05-25T13:38:16.568529Z"}}